Wind_Speed
66 61 58 45 45 39 47 46 40 36 33 19 13 16 24 21 19 26 36 36 45 38 26 20 18 24 23 21 19 17 15 13 13 14 9 8 7 5 3 5 5 4 3 4
70 61 49 43 40 40 38 46 40 33 35 25 23 22 25 27 28 25 36 39 39 43 34 29 22 27 30 26 23 20 18 15 16 15 12 9 6 5 3 1 1 4 6 6
70 60 53 46 41 34 26 36 45 38 36 25 26 29 31 27 34 37 36 45 46 44 38 26 16 15 27 26 28 25 19 18 16 15 11 8 8 5 5 5 3 2 2 6
74 65 60 45 46 50 38 19 36 38 32 27 21 22 26 28 28 31 40 45 44 41 36 30 22 23 27 31 29 26 22 20 18 17 13 11 10 7 8 11 12 11 7 6
71 67 61 49 45 39 44 40 46 49 35 26 33 33 37 41 41 39 41 42 37 32 31 26 26 28 28 30 25 26 23 22 22 20 19 18 13 11 12 12 14 16 16 14
74 63 61 56 56 51 50 50 51 54 44 42 40 39 42 43 47 42 39 39 40 36 31 30 28 25 24 26 28 27 21 19 23 25 24 22 19 17 18 19 19 21 22 22
71 59 55 61 63 57 53 52 59 58 50 48 52 49 49 46 41 44 41 40 40 41 38 36 33 30 30 30 29 27 27 26 25 24 25 27 28 28 25 27 28 27 26 27
60 74 56 61 59 67 66 63 62 64 54 61 56 58 57 50 42 37 38 37 35 35 32 31 32 34 33 31 28 27 26 26 29 30 29 32 32 30 30 31 32 33 32 31
67 56 71 52 63 76 71 71 69 67 64 65 64 62 61 55 48 35 34 38 39 35 33 32 31 29 29 29 28 35 36 36 34 30 31 34 33 30 29 29 30 32 31 30
71 63 69 53 55 66 79 76 73 69 75 78 74 72 66 59 54 49 43 35 35 36 37 36 36 34 27 24 25 25 29 33 35 36 37 36 31 28 27 27 29 32 32 32
61 63 71 54 42 52 62 71 69 73 75 78 78 73 65 61 61 56 34 36 41 42 40 39 38 35 29 29 30 28 29 31 31 32 33 33 35 33 33 32 31 32 32 34
65 60 66 67 51 40 53 60 69 75 74 73 72 71 63 59 57 47 42 47 50 46 41 39 38 34 33 35 34 32 33 35 35 35 36 37 38 36 36 36 36 36 36 38
61 57 69 64 69 60 46 62 65 68 70 70 72 70 66 65 62 54 59 58 50 51 48 43 42 39 38 38 37 36 36 36 37 37 39 39 39 40 39 38 39 40 41 43
64 69 70 68 67 65 73 55 58 63 59 61 63 64 66 66 63 55 57 56 53 52 52 51 47 43 43 43 41 39 40 40 40 42 40 38 39 39 41 41 42 44 46 47
19 37 57 69 77 79 77 78 78 69 62 57 56 59 59 55 53 52 50 54 55 53 53 54 51 48 48 47 48 48 47 46 44 44 44 42 44 44 46 47 47 48 48 49
10 19 25 33 46 65 79 87 84 84 85 82 78 77 77 75 71 66 60 55 51 48 46 47 51 51 50 49 49 50 51 49 49 49 51 49 49 49 48 49 49 49 50 53
9 11 20 33 44 51 57 73 84 89 88 86 83 82 82 80 76 74 71 67 64 62 59 57 52 52 49 47 49 49 51 52 52 53 53 53 54 55 56 55 52 53 55 57
21 18 17 13 20 49 57 60 66 74 81 84 86 87 86 84 79 75 70 67 64 63 61 62 59 56 53 53 57 56 56 55 57 57 56 56 55 55 56 57 58 60 62 63
17 20 21 13 11 5 6 27 46 58 64 72 74 81 82 83 81 76 72 70 66 62 61 61 62 60 60 59 61 60 59 60 62 62 62 62 62 61 62 62 65 66 68 69
14 11 8 11 9 5 1 6 12 17 21 37 66 71 72 74 77 78 75 72 69 66 60 60 61 61 62 64 63 61 64 65 65 68 68 68 67 67 68 70 71 72 72 71
10 10 7 3 5 8 11 10 5 8 17 18 16 30 52 71 69 71 73 71 68 64 58 60 59 61 61 61 62 62 63 66 68 68 72 72 74 74 74 74 75 73 73 74
18 12 8 5 2 5 11 15 18 27 24 32 34 29 24 26 43 61 64 64 64 63 61 59 59 57 48 59 61 53 58 59 63 69 72 72 74 77 76 72 69 68 68 70
14 15 18 11 7 5 5 7 22 23 15 27 31 20 18 24 20 26 38 51 59 60 55 45 55 68 72 69 70 55 63 61 52 61 65 70 70 72 69 69 66 63 62 62
12 12 11 11 19 16 7 9 12 16 28 27 26 32 37 31 29 37 38 45 45 45 46 52 46 44 47 54 57 72 64 63 70 73 70 63 58 59 56 59 62 61 63 63
16 14 13 13 11 10 14 17 9 5 9 12 15 18 24 35 40 35 33 41 49 48 53 60 62 66 54 53 51 62 63 62 53 45 51 53 50 48 59 69 67 59 59 61
18 15 16 16 15 13 12 12 9 12 15 13 7 3 6 11 20 24 24 25 28 31 34 39 41 46 45 43 41 40 41 38 39 40 40 41 42 43 44 44 49 53 55 51
17 19 17 15 14 16 14 14 16 14 14 16 14 12 11 10 8 7 13 18 18 20 23 24 28 31 33 33 34 37 37 36 36 35 37 40 41 42 38 38 40 41 42 40
Wind_Direction
193 186 191 195 215 222 216 214 210 191 196 183 209 214 211 219 224 222 207 223 232 231 221 206 218 213 210 219 222 211 205 221 219 220 219 203 186 169 127 107 89 63 30 1
186 183 184 194 195 221 218 216 213 187 196 196 189 206 223 231 233 227 221 215 223 230 227 222 215 217 203 203 211 213 217 219 222 228 224 210 204 191 172 194 87 68 30 353
182 177 188 184 183 208 220 220 209 194 183 209 217 236 235 246 240 238 239 213 212 223 232 228 204 208 219 205 204 211 215 216 223 228 220 217 223 217 238 247 276 272 300 339
181 189 191 175 174 194 202 208 205 181 189 221 226 227 235 242 235 224 228 216 215 222 228 228 221 200 190 211 213 210 207 201 204 210 207 217 229 237 249 263 274 269 281 293
188 190 183 174 181 173 191 196 190 182 195 215 221 216 221 219 216 214 220 227 229 228 230 233 232 224 205 209 220 219 216 210 209 213 221 225 223 237 253 267 273 278 275 284
192 189 190 189 181 174 178 193 187 190 198 209 210 215 222 220 211 212 218 223 228 232 233 235 240 239 234 227 222 224 225 226 226 225 230 233 235 244 256 261 273 277 277 281
194 194 191 189 185 177 180 179 189 194 200 194 208 214 219 226 208 205 216 224 230 233 237 239 236 230 228 232 231 231 228 233 239 245 240 235 241 244 250 261 265 266 271 270
192 201 192 192 182 186 185 181 186 195 198 205 203 213 223 225 223 205 207 213 219 225 227 227 231 230 230 231 231 228 223 234 240 237 243 244 241 237 238 245 258 261 263 268
195 185 194 186 190 192 189 185 184 192 203 202 201 212 224 229 228 213 209 217 220 224 224 223 227 225 220 222 213 206 211 225 233 238 243 245 245 245 245 248 251 254 258 259
196 200 195 187 194 192 195 189 186 190 195 198 205 210 221 231 234 230 216 221 221 221 223 225 228 232 234 241 237 227 221 217 219 225 234 243 249 252 253 256 258 259 259 259
201 206 212 204 197 204 195 201 196 196 199 201 209 218 224 231 235 235 230 225 229 229 230 230 230 231 233 238 241 237 234 235 231 230 232 238 247 250 252 255 259 262 265 266
215 214 216 218 215 206 206 204 206 211 213 219 220 222 223 227 232 235 232 227 228 230 230 233 237 236 237 239 239 237 239 240 241 241 242 245 247 250 253 257 259 261 262 264
234 233 225 222 224 218 212 211 214 216 217 218 224 228 229 230 231 233 232 230 226 228 230 236 239 241 241 242 243 240 237 239 242 244 246 247 249 252 254 255 257 259 258 263
244 239 237 230 227 228 222 212 215 223 224 226 231 233 235 237 237 238 238 239 237 232 232 233 237 237 241 246 245 246 246 245 246 249 250 248 251 252 253 254 255 257 259 261
241 238 231 233 234 230 231 226 224 223 219 221 227 232 233 231 233 232 232 234 236 235 233 236 238 239 238 240 246 247 247 249 249 250 250 248 249 251 253 254 256 258 261 263
257 250 247 234 227 228 234 235 231 230 231 232 234 237 238 240 239 240 240 237 239 240 242 238 239 241 240 238 240 244 246 245 246 247 249 251 251 254 252 253 255 258 260 262
4 308 281 258 232 227 228 231 236 237 234 235 237 241 243 244 243 242 239 238 239 241 245 248 245 242 243 242 237 239 242 243 243 244 247 248 250 251 253 253 254 256 258 261
19 19 356 348 240 222 226 229 233 237 240 240 240 241 242 243 245 244 244 243 243 244 243 244 245 246 242 240 243 241 243 244 245 246 247 248 249 252 255 258 258 257 257 259
23 20 36 44 38 64 219 234 230 228 229 226 232 239 241 243 244 245 246 248 246 242 243 245 246 246 247 245 243 243 242 243 245 247 248 250 250 251 253 256 257 259 260 260
48 26 57 103 54 337 273 238 214 211 229 246 232 226 232 236 240 241 243 245 247 247 245 244 244 245 248 248 248 249 248 247 243 244 247 251 252 252 252 253 254 257 259 262
27 52 37 295 220 216 239 223 247 197 182 186 214 234 235 228 232 236 239 241 243 244 242 243 245 246 248 249 249 246 251 251 255 254 249 248 248 249 250 251 253 256 260 263
10 28 37 45 95 263 246 244 163 144 169 190 203 221 233 235 235 232 230 233 237 239 239 232 234 237 227 240 246 240 242 244 240 244 253 252 248 250 252 255 258 260 262 263
332 350 358 15 43 89 134 173 189 190 206 171 175 221 228 235 230 225 230 228 225 228 232 234 229 228 235 241 244 244 246 244 250 253 252 253 251 252 255 257 259 262 264 266
310 310 318 339 346 356 43 140 158 162 194 203 199 201 208 218 209 208 213 224 233 237 223 225 237 240 247 239 234 217 228 245 231 244 248 250 249 250 256 260 261 259 266 268
319 309 299 293 292 308 325 339 353 109 145 161 179 188 200 206 211 210 211 207 207 207 213 224 226 220 206 209 209 209 208 208 218 227 240 246 248 247 253 258 266 268 266 263
321 319 308 300 292 285 284 282 284 314 328 333 342 246 204 195 193 201 208 219 228 230 231 232 231 230 240 240 242 243 242 248 253 255 252 252 256 259 264 267 264 262 262 263
319 316 308 306 300 288 280 274 268 262 269 272 269 273 287 287 279 251 234 235 234 236 236 238 240 239 240 242 244 246 248 250 251 253 256 258 259 259 259 257 258 261 262 263
Height
5702 5715 5727 5740 5752 5761 5767 5777 5785 5798 5804 5811 5818 5822 5826 5833 5838 5840 5847 5851 5851 5857 5864 5870 5874 5878 5882 5887 5891 5896 5900 5904 5908 5911 5915 5917 5919 5920 5921 5922 5923 5924 5925 5926
5690 5709 5724 5730 5736 5754 5764 5773 5782 5793 5801 5807 5815 5819 5822 5826 5832 5836 5840 5846 5849 5851 5856 5862 5870 5874 5877 5881 5887 5892 5897 5901 5904 5908 5912 5914 5916 5918 5919 5920 5921 5923 5923 5924
5691 5705 5709 5719 5731 5751 5760 5768 5777 5786 5797 5799 5808 5813 5819 5821 5826 5830 5833 5837 5842 5845 5850 5855 5863 5871 5875 5879 5883 5888 5893 5898 5902 5906 5909 5911 5913 5916 5917 5918 5919 5920 5921 5922
5683 5688 5701 5723 5729 5736 5750 5764 5775 5784 5789 5793 5802 5808 5811 5813 5817 5821 5824 5829 5834 5839 5844 5849 5856 5862 5868 5872 5878 5885 5890 5894 5898 5903 5906 5908 5910 5912 5914 5915 5917 5918 5919 5920
5671 5678 5702 5716 5717 5727 5742 5750 5759 5769 5779 5788 5785 5789 5794 5798 5804 5810 5817 5823 5829 5834 5840 5844 5849 5855 5861 5867 5873 5878 5884 5889 5893 5898 5901 5904 5906 5908 5909 5911 5912 5914 5914 5916
5662 5679 5688 5689 5703 5714 5726 5738 5749 5758 5767 5770 5774 5779 5781 5788 5798 5806 5810 5817 5824 5830 5836 5842 5845 5850 5857 5863 5868 5872 5878 5882 5886 5890 5893 5898 5901 5902 5904 5906 5907 5908 5909 5910
5658 5665 5668 5689 5696 5707 5714 5724 5733 5742 5747 5747 5761 5765 5771 5778 5791 5800 5807 5813 5820 5826 5833 5837 5841 5845 5849 5854 5860 5867 5871 5874 5878 5882 5886 5889 5891 5894 5896 5898 5900 5902 5903 5904
5653 5659 5666 5676 5676 5687 5694 5705 5719 5727 5730 5745 5753 5757 5762 5772 5783 5795 5802 5808 5814 5820 5825 5830 5835 5838 5842 5847 5853 5858 5862 5867 5870 5873 5876 5878 5881 5884 5886 5889 5891 5893 5894 5897
5635 5638 5654 5658 5669 5670 5680 5693 5705 5716 5727 5739 5748 5754 5758 5766 5777 5790 5796 5802 5808 5813 5818 5821 5825 5830 5834 5838 5844 5849 5852 5856 5860 5864 5867 5869 5871 5874 5877 5879 5881 5883 5885 5887
5628 5634 5642 5646 5647 5658 5676 5688 5696 5710 5722 5736 5739 5746 5753 5761 5770 5780 5790 5796 5801 5805 5811 5815 5818 5822 5828 5834 5837 5841 5844 5848 5852 5854 5858 5860 5863 5865 5867 5870 5872 5873 5875 5876
5630 5637 5645 5658 5666 5673 5683 5694 5702 5708 5717 5726 5732 5740 5749 5755 5762 5771 5784 5790 5793 5797 5802 5806 5810 5817 5822 5825 5829 5833 5836 5839 5843 5847 5850 5852 5854 5856 5859 5860 5862 5864 5865 5866
5636 5643 5648 5659 5666 5675 5681 5687 5692 5702 5707 5712 5722 5730 5739 5747 5755 5766 5774 5777 5781 5787 5793 5798 5803 5809 5813 5815 5819 5823 5827 5830 5834 5837 5840 5843 5844 5846 5849 5851 5852 5853 5855 5854
5629 5637 5644 5655 5657 5667 5675 5677 5680 5689 5699 5705 5712 5719 5728 5737 5746 5753 5759 5764 5769 5777 5784 5788 5793 5798 5803 5805 5810 5814 5817 5820 5823 5826 5828 5832 5834 5836 5838 5840 5841 5842 5843 5844
5606 5616 5627 5638 5644 5645 5654 5664 5672 5680 5689 5697 5706 5714 5723 5731 5735 5742 5748 5755 5760 5767 5772 5777 5782 5787 5792 5795 5798 5802 5806 5809 5812 5814 5818 5821 5822 5825 5826 5828 5828 5830 5830 5830
5598 5600 5604 5613 5626 5634 5637 5647 5655 5661 5671 5680 5688 5696 5706 5715 5723 5729 5735 5742 5748 5753 5761 5765 5771 5776 5780 5784 5787 5791 5793 5797 5801 5803 5805 5808 5809 5812 5814 5814 5815 5816 5817 5818
5598 5598 5599 5600 5603 5610 5619 5630 5638 5646 5653 5662 5670 5676 5684 5693 5704 5714 5722 5730 5736 5742 5747 5754 5759 5763 5767 5771 5774 5777 5780 5784 5786 5789 5790 5794 5797 5798 5801 5802 5803 5804 5805 5804
5591 5590 5587 5583 5587 5593 5599 5608 5616 5626 5638 5648 5658 5664 5669 5676 5685 5693 5707 5714 5720 5727 5732 5737 5745 5750 5753 5756 5760 5763 5766 5769 5772 5774 5777 5779 5781 5783 5785 5788 5790 5791 5790 5790
5591 5587 5582 5574 5570 5575 5582 5590 5599 5611 5623 5634 5640 5646 5651 5658 5670 5681 5690 5698 5706 5712 5717 5720 5725 5731 5738 5741 5744 5748 5750 5753 5755 5758 5763 5765 5769 5771 5772 5773 5773 5772 5772 5773
5592 5587 5582 5578 5576 5576 5579 5583 5588 5593 5598 5604 5613 5625 5635 5644 5655 5665 5674 5678 5685 5694 5700 5705 5710 5716 5718 5722 5726 5730 5734 5737 5740 5744 5749 5751 5752 5755 5756 5757 5757 5758 5758 5757
5596 5591 5587 5584 5582 5582 5581 5580 5581 5583 5586 5589 5596 5604 5614 5626 5636 5645 5653 5661 5668 5674 5685 5688 5694 5698 5700 5703 5708 5715 5716 5719 5725 5729 5733 5734 5736 5738 5738 5739 5739 5738 5739 5740
5600 5595 5591 5587 5584 5583 5582 5582 5579 5580 5581 5583 5585 5591 5597 5606 5616 5626 5635 5643 5649 5658 5665 5670 5677 5681 5684 5685 5689 5694 5700 5701 5703 5707 5712 5714 5712 5714 5716 5718 5719 5722 5724 5725
5601 5598 5594 5590 5587 5584 5581 5582 5584 5581 5583 5582 5584 5587 5590 5595 5601 5607 5616 5625 5631 5639 5646 5654 5659 5664 5668 5669 5672 5675 5679 5683 5684 5685 5684 5690 5693 5694 5697 5701 5703 5705 5707 5708
5596 5594 5593 5592 5590 5586 5584 5582 5582 5584 5583 5586 5585 5586 5590 5593 5596 5598 5602 5610 5618 5625 5633 5637 5643 5648 5653 5653 5655 5661 5659 5665 5667 5665 5667 5670 5674 5677 5681 5684 5686 5687 5688 5689
5595 5592 5589 5588 5588 5585 5583 5583 5582 5581 5582 5584 5585 5586 5587 5589 5594 5599 5603 5607 5612 5615 5621 5626 5631 5634 5637 5642 5644 5647 5641 5648 5650 5651 5651 5654 5657 5659 5661 5663 5666 5667 5669 5670
5591 5589 5587 5584 5584 5584 5582 5580 5579 5579 5580 5580 5581 5583 5584 5586 5590 5591 5596 5600 5603 5605 5608 5613 5618 5623 5623 5626 5625 5626 5626 5630 5635 5636 5637 5641 5642 5643 5645 5647 5649 5650 5649 5649
5587 5586 5583 5580 5579 5579 5579 5578 5577 5577 5576 5574 5573 5577 5579 5580 5582 5585 5587 5591 5593 5595 5597 5601 5606 5609 5611 5612 5614 5615 5618 5618 5621 5624 5626 5627 5627 5628 5631 5633 5635 5635 5634 5633
5584 5580 5578 5577 5576 5574 5574 5574 5573 5575 5575 5574 5576 5577 5577 5578 5579 5581 5584 5585 5585 5586 5588 5590 5593 5596 5597 5600 5603 5605 5608 5609 5610 5611 5613 5614 5614 5615 5616 5618 5619 5620 5620 5618